This is the latest recevied weather packets stored in our database for station/object KC1IUC-13. If no packets are shown the sender has not sent any weather packets the latest 10 day(s).
| Time | Temp. | Humidity | Pressure | Rain* | Wind** | Luminosity | Snow |
|---|---|---|---|---|---|---|---|
| 1777726803 | 11.11° C | 83% | 1008 hPa | 0 mm | - | 91 W/m² | - |
| 1777726443 | 11.11° C | 83% | 1007.6 hPa | 0 mm | - | 91 W/m² | - |
| 1777725903 | 10.56° C | 83% | 1008 hPa | 0 mm | - | 117 W/m² | - |
| 1777725363 | 10.56° C | 83% | 1008 hPa | 0 mm | - | 62 W/m² | - |
| 1777724823 | 11.11° C | 83% | 1008.3 hPa | 0 mm | - | 117 W/m² | - |
| 1777724283 | 10.56° C | 83% | 1008.3 hPa | 0 mm | - | 100 W/m² | - |
| 1777723743 | 10° C | 83% | 1008.3 hPa | 0 mm | - | 83 W/m² | - |
| 1777723203 | 8.89° C | 83% | 1008 hPa | 0 mm | - | 96 W/m² | - |
| 1777722843 | 8.33° C | 83% | 1008.3 hPa | 0 mm | - | 40 W/m² | - |
| 1777722303 | 8.33° C | 83% | 1008.3 hPa | 0 mm | - | 42 W/m² | - |
| 1777721763 | 8.33° C | 83% | 1008.3 hPa | 0 mm | - | 45 W/m² | - |
| 1777721223 | 8.33° C | 82% | 1008.3 hPa | 0.25 mm | - | 36 W/m² | - |
| 1777720683 | 7.78° C | 82% | 1008.3 hPa | 0.51 mm | - | 19 W/m² | - |
| 1777720143 | 7.78° C | 82% | 1008.3 hPa | 0.51 mm | - | 22 W/m² | - |
| 1777719603 | 7.78° C | 81% | 1008 hPa | 0.51 mm | - | 14 W/m² | - |
| 1777719243 | 7.78° C | 81% | 1008 hPa | 0.51 mm | - | 15 W/m² | - |
| 1777718703 | 7.78° C | 81% | 1007.6 hPa | 0.51 mm | - | 7 W/m² | - |
| 1777718163 | 7.78° C | 81% | 1008 hPa | 0.51 mm | - | 5 W/m² | - |
| 1777717623 | 7.78° C | 80% | 1008.3 hPa | 0.25 mm | - | 2 W/m² | - |
| 1777717083 | 7.78° C | 80% | 1008.7 hPa | 0 mm | - | 0 W/m² | - |
| 1777716543 | 7.78° C | 80% | 1008.7 hPa | 0 mm | - | 0 W/m² | - |
| 1777716003 | 7.78° C | 80% | 1007.6 hPa | 0 mm | - | 1 W/m² | - |
| 1777715643 | 7.78° C | 79% | 1007.6 hPa | 0 mm | - | 1 W/m² | - |
| 1777715103 | 7.78° C | 79% | 1007.6 hPa | 0 mm | - | 0 W/m² | - |
| 1777714563 | 7.78° C | 79% | 1007.6 hPa | 0 mm | - | 0 W/m² | - |
* Rain latest hour (hover to see other rain measurements)
** Current wind speed in m/s (hover to see current wind gust speed)